Regional Weather Roundup
Issued by NWS Green Bay, WI

Home | Current Version | Previous Version | Text Only | Print | Product List | Glossary On
Versions: 1 2 3 4 5 6 7 8 9 10 11 12 13 14 15 16 17 18 19 20 21 22 23 24 25 26 27 28 29 30 31 32 33 34 35 36 37 38 39 40 41 42 43 44 45 46 47 48 49 50
000
ASUS43 KGRB 222211
RWRGRB

NORTH-CENTRAL AND NORTHEAST WISCONSIN REGIONAL WEATHER ROUNDUP
NATIONAL WEATHER SERVICE GREEN BAY WI
500 PM CDT MON MAY 22 2017

WIZ005-009-010>012-018-019-222300-
NORTH CENTRAL WISCONSIN

CITY           SKY/WX    TMP DP  RH WIND       PRES   REMARKS
IRONWOOD       LGT RAIN  52  44  74 W12       29.81S
MANITOWISH WTR CLOUDY    52  44  73 W9        29.81R
ARBOR VITAE    MOSUNNY   57  44  63 W9        29.81R
EAGLE RIVER    CLOUDY    53  40  61 W7        29.81R
LAND O LAKES   PTSUNNY   53  44  71 W5G16     29.82R
RHINELANDER    PTSUNNY   58  41  53 NW12G17   29.81S
PHILLIPS       CLOUDY    55  41  60 W7        29.81R
ANTIGO         PTSUNNY   60  44  54 W14G22    29.81R
TOMAHAWK       PTSUNNY   57  40  53 W7G21     29.81S
MERRILL        CLOUDY    61  42  49 W16G26    29.80S
$$

WIZ013-073-222300-
NORTHEAST WISCONSIN

CITY           SKY/WX    TMP DP  RH WIND       PRES   REMARKS
IRON MOUNTAIN  CLOUDY    55  41  59 W9        29.79R
MARINETTE      PTSUNNY   65  43  44 SW8G16    29.78F
OCONTO         PTSUNNY   67  44  43 W10       29.78F
$$

WIZ017-030-035>037-045-222300-
CENTRAL WISCONSIN

CITY           SKY/WX    TMP DP  RH WIND       PRES   REMARKS
MEDFORD        PTSUNNY   58  42  54 W9        29.81S
WAUSAU         CLOUDY    62  43  49 W15       29.78S
MOSINEE        PTSUNNY   64  43  45 W17G23    29.80
MARSHFIELD     PTSUNNY   64  43  46 W13       29.80S
WISC RAPIDS    MOSUNNY   70  43  37 W16G25    29.81S
STEVENS POINT  MOSUNNY   65  41  41 W13G23    29.81S
WAUPACA        CLOUDY    69  42  36 SW9       29.80S
SHAWANO        PTSUNNY   69  43  38 SW13G18   29.78F
CLINTONVILLE   PTSUNNY   68  41  37 SW10G17   29.79S
WAUTOMA        PTSUNNY   67  47  48 SW13G25   29.81S
$$

WIZ038-039-048-051-222300-
FOX VALLEY

CITY           SKY/WX    TMP DP  RH WIND       PRES   REMARKS
NWS GREEN BAY  PTSUNNY   68  50  52 SW14      29.79F
APPLETON       PTSUNNY   66  41  39 SW14G23   29.79F
OSHKOSH        MOSUNNY   67  49  52 SW13G22   29.82S
FOND DU LAC    CLOUDY    67  48  50 SW15      29.84F
$$

WIZ022-050-052-222300-
EAST CENTRAL WISCONSIN

CITY           SKY/WX    TMP DP  RH WIND       PRES   REMARKS
EPHRAIM        MOCLDY    59  47  64 S9G16     29.79S
WASHINGTON ISL CLOUDY    49  42  76 S9G21     29.80S
STURGEON BAY   PTSUNNY   56  45  66 S13       29.80F
MANITOWOC      SUNNY     68  46  45 SW18G26   29.81F
SHEBOYGAN      PTSUNNY   65  51  60 SW16G22   29.84F
$$

LMZ563-521-522-541>543-222300-
LAKESHORE

STATION/POSITION TIME  TEMP    WIND        PRES    VSBY  WAVE
                       AIR SEA DIR/SP/G                  HT/PER
                 (UTC) (F)     (DEG/KT/KT) (MB)    (MI)  (FT/S)
SHEBOYGAN LKSHOR 2200   64     230/ 19/ 22 1010.4F
KEWAUNEE LKSHORE 2136          180/ 13/ 16 1009.5F
NORTHPORT PIER   2140   53     150/  8/ 16 1009.5S
N MID LAKE BUOY  2150   44 39  180/ 16/ 17 1010.6F         3/ 5
CHAMBERS ISLAND  2140   62     180/  8/ 15 1008.1F
MENOMINEE LKSHOR 2136          180/ 11/ 14 1007.8F
$$




USA.gov is the U.S. government's official web portal to all federal, state and local government web resources and services.